Radiation Dose at Monitoring Post of Fukushima Daini Nuclear Power Station
Date,Time,MP-1(microSv/h),MP-2(microSv/h),MP-3(microSv/h),MP-4(microSv/h),MP-5(microSv/h),MP-6(microSv/h),MP-7(microSv/h),Wind Direction,Wind Velocity(m/s),Rain
2021/05/12,00:00,0.173,0.158,0.259,0.244,0.238,0.135,0.084,north,5.3,No
2021/05/12,00:10,0.174,0.158,0.256,0.245,0.238,0.135,0.083,north-northwest,4.7,No
2021/05/12,00:20,0.173,0.157,0.257,0.244,0.237,0.135,0.083,north-northwest,4.0,No
2021/05/12,00:30,0.173,0.158,0.257,0.244,0.238,0.136,0.083,north-northwest,3.5,No
2021/05/12,00:40,0.174,0.158,0.257,0.243,0.237,0.135,0.083,north-northwest,3.4,No
2021/05/12,00:50,0.174,0.157,0.257,0.244,0.238,0.136,0.084,north-northwest,3.5,No
2021/05/12,01:00,0.174,0.158,0.257,0.244,0.238,0.134,0.084,north-northwest,1.9,No
2021/05/12,01:10,0.173,0.158,0.258,0.244,0.237,0.136,0.083,north-northwest,2.3,No
2021/05/12,01:20,0.173,0.158,0.257,0.245,0.238,0.135,0.084,north,2.5,No
2021/05/12,01:30,0.173,0.157,0.256,0.245,0.238,0.135,0.084,north-northwest,2.7,No
2021/05/12,01:40,0.174,0.157,0.259,0.243,0.237,0.135,0.084,north-northwest,2.0,No
2021/05/12,01:50,0.175,0.158,0.258,0.244,0.238,0.135,0.083,north-northwest,1.6,No
2021/05/12,02:00,0.173,0.158,0.257,0.246,0.237,0.136,0.083,north-northwest,2.1,No
2021/05/12,02:10,0.173,0.157,0.257,0.244,0.238,0.136,0.083,north-northwest,1.3,No
2021/05/12,02:20,0.173,0.158,0.258,0.243,0.237,0.135,0.083,north-northwest,1.7,No
2021/05/12,02:30,0.173,0.158,0.257,0.246,0.238,0.135,0.084,north-northwest,1.7,No
2021/05/12,02:40,0.173,0.157,0.257,0.245,0.237,0.135,0.083,northwest,2.2,No
2021/05/12,02:50,0.174,0.158,0.257,0.245,0.238,0.135,0.084,north-northwest,1.3,No
2021/05/12,03:00,0.174,0.157,0.258,0.245,0.238,0.134,0.084,north-northwest,1.5,No
2021/05/12,03:10,0.173,0.157,0.258,0.245,0.238,0.136,0.084,north-northwest,1.1,No
2021/05/12,03:20,0.174,0.157,0.258,0.244,0.238,0.135,0.083,north-northwest,1.0,No
2021/05/12,03:30,0.173,0.158,0.257,0.245,0.237,0.135,0.084,north-northwest,1.0,No
2021/05/12,03:40,0.173,0.157,0.257,0.243,0.237,0.135,0.083,-,CALM,No
2021/05/12,03:50,0.175,0.158,0.257,0.244,0.237,0.135,0.084,-,CALM,No
2021/05/12,04:00,0.175,0.158,0.257,0.244,0.238,0.134,0.084,north-northwest,1.6,No
2021/05/12,04:10,0.174,0.157,0.256,0.244,0.238,0.135,0.083,north-northwest,1.4,No
2021/05/12,04:20,0.173,0.157,0.257,0.244,0.238,0.135,0.084,northwest,2.4,No
2021/05/12,04:30,0.173,0.158,0.256,0.245,0.238,0.135,0.083,northwest,2.6,No
2021/05/12,04:40,0.173,0.158,0.257,0.246,0.236,0.136,0.083,north-northwest,3.2,No
2021/05/12,04:50,0.174,0.157,0.257,0.245,0.237,0.135,0.083,northwest,2.8,No
2021/05/12,05:00,0.174,0.157,0.256,0.243,0.237,0.135,0.084,northwest,3.1,No
2021/05/12,05:10,0.172,0.158,0.257,0.244,0.237,0.135,0.084,northwest,2.6,No
2021/05/12,05:20,0.174,0.157,0.257,0.244,0.238,0.135,0.083,north-northwest,2.0,No
2021/05/12,05:30,0.174,0.156,0.256,0.245,0.236,0.136,0.084,northwest,2.0,No
2021/05/12,05:40,0.173,0.157,0.256,0.244,0.238,0.135,0.083,northwest,2.8,No
2021/05/12,05:50,0.174,0.157,0.256,0.243,0.237,0.135,0.083,west-northwest,1.6,No
2021/05/12,06:00,0.173,0.158,0.256,0.243,0.236,0.135,0.083,northwest,2.1,No
2021/05/12,06:10,0.173,0.157,0.257,0.244,0.239,0.134,0.083,northwest,2.6,No
2021/05/12,06:20,0.173,0.156,0.256,0.244,0.236,0.134,0.083,northwest,1.5,No
2021/05/12,06:30,0.174,0.158,0.256,0.244,0.239,0.135,0.083,northwest,0.9,No
2021/05/12,06:40,0.173,0.155,0.256,0.243,0.237,0.135,0.083,north,1.4,No
2021/05/12,06:50,0.174,0.157,0.257,0.242,0.239,0.135,0.083,northeast,1.4,No
2021/05/12,07:00,0.173,0.157,0.256,0.245,0.236,0.136,0.083,northeast,1.7,No
2021/05/12,07:10,0.174,0.157,0.257,0.241,0.239,0.135,0.083,northeast,1.8,No
2021/05/12,07:20,0.174,0.156,0.254,0.243,0.236,0.135,0.083,northeast,1.6,No
2021/05/12,07:30,0.174,0.157,0.257,0.242,0.237,0.135,0.083,east-northeast,2.2,No
2021/05/12,07:40,0.172,0.155,0.255,0.243,0.238,0.134,0.083,east,2.1,No
2021/05/12,07:50,0.174,0.157,0.253,0.243,0.238,0.134,0.084,east-southeast,2.8,No
2021/05/12,08:00,0.172,0.157,0.257,0.242,0.238,0.135,0.084,east,2.6,No
2021/05/12,08:10,0.173,0.156,0.254,0.245,0.237,0.134,0.083,east,2.6,No
2021/05/12,08:20,0.173,0.157,0.256,0.242,0.235,0.134,0.083,east,2.3,No
2021/05/12,08:30,0.174,0.156,0.258,0.241,0.239,0.134,0.084,east,2.3,No
2021/05/12,08:40,0.173,0.158,0.255,0.244,0.237,0.135,0.083,east,2.4,No
2021/05/12,08:50,0.173,0.157,0.255,0.242,0.237,0.135,0.083,east-northeast,2.3,No
2021/05/12,09:00,0.174,0.157,0.258,0.242,0.238,0.135,0.084,east,3.3,No
2021/05/12,09:10,0.173,0.157,0.255,0.244,0.236,0.134,0.084,east,3.2,No
2021/05/12,09:20,0.174,0.156,0.253,0.243,0.238,0.136,0.083,east,2.5,No
2021/05/12,09:30,0.173,0.157,0.255,0.241,0.237,0.134,0.083,east-southeast,2.3,No
2021/05/12,09:40,0.173,0.156,-,0.244,0.235,0.136,0.084,east,3.7,No
2021/05/12,09:50,0.173,0.157,-,0.244,0.238,0.135,0.083,east,3.5,No
2021/05/12,10:00,0.171,0.156,-,0.241,0.237,0.134,0.084,east,3.3,No
2021/05/12,10:10,0.174,0.155,-,0.243,0.236,0.136,0.083,east-southeast,2.5,No
2021/05/12,10:20,0.173,0.156,-,0.244,0.239,0.136,0.083,east-southeast,3.1,No
2021/05/12,10:30,0.172,0.156,-,0.242,0.236,0.135,0.084,east,3.2,No
2021/05/12,10:40,0.173,0.156,-,0.244,0.237,0.134,0.082,east,2.8,No
2021/05/12,10:50,0.172,0.157,-,0.243,0.239,0.134,0.083,east,3.8,No
2021/05/12,11:00,0.172,0.156,-,0.240,0.236,0.134,0.084,east,2.7,No
2021/05/12,11:10,0.174,0.158,-,0.239,0.237,0.135,0.083,east,3.1,No
2021/05/12,11:20,0.172,0.157,-,0.246,0.239,0.134,0.084,east,3.4,No
2021/05/12,11:30,0.174,0.156,-,0.244,0.235,0.134,0.083,east,3.5,No
2021/05/12,11:40,0.174,0.158,-,0.243,0.237,0.135,0.083,east,3.4,No
2021/05/12,11:50,0.173,0.157,-,0.245,0.239,0.135,0.083,east,2.8,No
2021/05/12,12:00,0.174,0.159,-,0.243,0.237,0.135,0.083,east,2.3,No
2021/05/12,12:10,0.174,0.156,-,0.242,0.236,0.135,0.083,east-southeast,2.5,No
2021/05/12,12:20,0.173,0.156,-,0.246,0.239,0.135,0.084,east-northeast,1.8,No
2021/05/12,12:30,0.174,0.158,-,0.244,0.237,0.135,0.083,east,3.2,No
2021/05/12,12:40,0.173,0.156,-,0.244,0.236,0.136,0.084,east-southeast,2.9,No
2021/05/12,12:50,0.172,0.156,-,0.245,0.239,0.134,0.083,east-southeast,3.2,No
2021/05/12,13:00,0.174,0.158,-,0.243,0.237,0.135,0.083,east-southeast,4.0,No
2021/05/12,13:10,0.172,0.156,-,0.243,0.235,0.135,0.084,east-southeast,3.3,No
2021/05/12,13:20,0.172,0.157,-,0.245,0.238,0.135,0.084,east-southeast,3.8,No
2021/05/12,13:30,0.174,0.157,-,0.245,0.237,0.136,0.082,east-southeast,4.3,No
2021/05/12,13:40,0.174,0.157,-,0.242,0.237,0.135,0.084,east-southeast,3.6,No
2021/05/12,13:50,0.172,0.157,-,0.245,0.237,0.134,0.084,east-southeast,3.8,No
2021/05/12,14:00,0.173,0.156,-,0.244,0.239,0.135,0.082,south-southeast,3.3,No
2021/05/12,14:10,0.173,0.157,-,0.243,0.238,0.135,0.084,south-southeast,3.4,No
2021/05/12,14:20,0.173,0.157,-,0.244,0.235,0.135,0.083,south-southeast,5.1,No
2021/05/12,14:30,0.170,0.156,-,0.244,0.239,0.136,0.083,south-southeast,4.9,No
2021/05/12,14:40,0.173,0.159,-,0.243,0.239,0.136,0.084,south-southeast,4.0,No
2021/05/12,14:50,0.175,0.157,-,0.245,0.237,0.134,0.084,south-southeast,3.7,No
2021/05/12,15:00,0.173,0.158,-,0.246,0.238,0.134,0.083,southeast,3.8,No
2021/05/12,15:10,0.173,0.158,-,0.244,0.239,0.136,0.084,south-southeast,5.4,No
2021/05/12,15:20,0.175,0.157,-,0.246,0.237,0.134,0.084,south-southeast,6.5,No
2021/05/12,15:30,0.173,0.158,-,0.245,0.239,0.135,0.084,south-southeast,6.0,No
2021/05/12,15:40,0.173,0.157,-,0.245,0.238,0.135,0.083,south-southeast,5.7,No
2021/05/12,15:50,0.175,0.158,-,0.245,0.236,0.136,0.083,south-southeast,5.8,No
2021/05/12,16:00,0.174,0.158,-,0.245,0.239,0.135,0.083,south-southeast,6.1,No
2021/05/12,16:10,0.174,0.158,-,0.246,0.236,0.137,0.083,south-southeast,5.6,No
2021/05/12,16:20,0.174,0.158,-,0.245,0.239,0.135,0.083,south-southeast,4.7,No
2021/05/12,16:30,0.173,0.159,-,0.246,0.237,0.135,0.084,south-southeast,4.9,No
2021/05/12,16:40,0.173,0.157,0.255,0.245,0.238,0.136,0.084,south-southeast,4.8,No
2021/05/12,16:50,0.173,0.158,0.254,0.246,0.239,0.135,0.083,south-southeast,4.6,No
2021/05/12,17:00,0.173,0.158,0.256,0.244,0.239,0.136,0.083,southeast,4.2,No
2021/05/12,17:10,0.173,0.158,0.255,0.246,0.240,0.136,0.083,south-southeast,4.7,No
2021/05/12,17:20,0.174,0.157,0.256,0.245,0.238,0.135,0.084,south-southeast,4.8,No
2021/05/12,17:30,0.173,0.159,0.255,0.246,0.239,0.135,0.084,south,5.9,No
2021/05/12,17:40,0.175,0.157,0.257,0.245,0.237,0.135,0.083,south-southeast,5.1,No
2021/05/12,17:50,0.173,0.158,0.255,0.246,0.238,0.135,0.083,south-southeast,5.1,No
2021/05/12,18:00,0.175,0.157,0.258,0.246,0.238,0.135,0.083,south-southeast,4.3,No
2021/05/12,18:10,0.173,0.158,0.255,0.245,0.239,0.135,0.084,south-southeast,5.7,No
2021/05/12,18:20,0.174,0.157,0.256,0.244,0.238,0.135,0.083,south-southeast,5.0,No
2021/05/12,18:30,0.172,0.157,0.256,0.245,0.238,0.135,0.082,south-southeast,4.7,No
2021/05/12,18:40,0.174,0.158,0.254,0.246,0.239,0.136,0.083,south,5.5,No
2021/05/12,18:50,0.173,0.157,0.256,0.244,0.238,0.135,0.082,south,4.5,No
2021/05/12,19:00,0.174,0.158,0.254,0.245,0.239,0.135,0.083,south,4.0,No
2021/05/12,19:10,0.174,0.158,0.255,0.245,0.237,0.135,0.083,south,3.8,No
2021/05/12,19:20,0.174,0.158,0.254,0.246,0.239,0.135,0.083,south-southwest,5.1,No
2021/05/12,19:30,0.173,0.158,0.255,0.245,0.237,0.136,0.084,south-southwest,4.8,No
2021/05/12,19:40,0.174,0.158,0.257,0.245,0.239,0.134,0.083,south-southwest,5.2,No
2021/05/12,19:50,0.174,0.158,0.255,0.245,0.237,0.135,0.084,south,4.7,No
2021/05/12,20:00,0.173,0.157,0.254,0.245,0.239,0.135,0.083,south-southwest,5.0,No
2021/05/12,20:10,0.173,0.157,0.256,0.246,0.237,0.135,0.083,south-southwest,5.2,No
2021/05/12,20:20,0.173,0.158,0.255,0.245,0.239,0.135,0.084,south-southwest,4.8,No
2021/05/12,20:30,0.174,0.158,0.257,0.246,0.238,0.135,0.083,south-southwest,5.0,No
2021/05/12,20:40,0.173,0.158,0.255,0.246,0.238,0.136,0.083,south-southwest,4.3,No
2021/05/12,20:50,0.174,0.157,0.255,0.246,0.239,0.135,0.084,south-southwest,4.9,No
2021/05/12,21:00,0.174,0.158,0.255,0.246,0.237,0.135,0.083,south-southwest,4.3,No
2021/05/12,21:10,0.175,0.158,0.255,0.245,0.239,0.135,0.083,south-southwest,4.7,No
2021/05/12,21:20,0.173,0.159,0.256,0.246,0.239,0.136,0.083,south-southwest,4.6,No
2021/05/12,21:30,0.174,0.158,0.256,0.247,0.239,0.136,0.084,south-southwest,5.7,No
2021/05/12,21:40,0.175,0.158,0.256,0.245,0.238,0.136,0.084,south-southwest,5.2,No
2021/05/12,21:50,0.174,0.158,0.256,0.246,0.238,0.136,0.083,south-southwest,5.3,No
2021/05/12,22:00,0.174,0.158,0.254,0.245,0.239,0.135,0.084,south-southwest,5.9,No
2021/05/12,22:10,0.173,0.160,0.256,0.246,0.237,0.136,0.083,south-southwest,4.8,No
2021/05/12,22:20,0.174,0.157,0.255,0.245,0.239,0.135,0.084,south-southwest,5.6,No
2021/05/12,22:30,0.175,0.158,0.256,0.246,0.238,0.135,0.083,south-southwest,5.5,No
2021/05/12,22:40,0.174,0.158,0.256,0.246,0.238,0.137,0.083,south,5.6,No
2021/05/12,22:50,0.174,0.157,0.257,0.244,0.238,0.135,0.083,south,5.9,No
2021/05/12,23:00,0.173,0.158,0.255,0.246,0.238,0.136,0.084,south,6.5,No
2021/05/12,23:10,0.176,0.158,0.256,0.244,0.239,0.135,0.084,south,6.0,No
2021/05/12,23:20,0.173,0.157,0.255,0.244,0.237,0.136,0.084,south-southwest,5.2,No
2021/05/12,23:30,0.173,0.159,0.255,0.245,0.240,0.135,0.083,south-southwest,5.0,No
2021/05/12,23:40,0.174,0.158,0.255,0.245,0.238,0.135,0.083,south-southwest,5.3,No
2021/05/12,23:50,0.174,0.158,0.256,0.244,0.239,0.136,0.084,south-southwest,4.6,No
